Weather History for Valparaiso, IN

Change the Weather History Date:

Monday, March 17, 2014

  Actual Average Record
Temperature  
Mean Temperature 25 °F 38 °F  
Max Temperature 37 °F 47 °F 78 °F (2012)
Min Temperature 12 °F 29 °F -4 °F (1900)
Degree Days  
Heating Degree Days 40 27  
Month to date heating degree days 581 507  
Since 1 July heating degree days 6030 5239  
Cooling Degree Days 0 0  
Month to date cooling degree days 0 0  
Year to date cooling degree days 0 0  
Moisture  
Dew Point 14 °F    
Average Humidity 66    
Maximum Humidity 82    
Minimum Humidity 51    
Precipitation  
Precipitation 0.00 in 0.07 in 1.26 in (1965)
Month to date precipitation 0.15 1.26  
Year to date precipitation 2.78 4.43  
Sea Level Pressure  
Sea Level Pressure 29.98 in    
Wind  
Wind Speed 8 mph (ESE)    
Max Wind Speed 14 mph    
Max Gust Speed 20 mph    
Visibility 10 miles    
Events      
T = Trace of Precipitation, MM = Missing Value Source: NWS Daily Summary

Daily Weather History Graph

Daily Weather History Graph

Search for Another Location

Airport:

Trip Planner

Search our weather history database for the weather conditions in past years. The results will help you decide how hot, cold, wet, or windy it might be!

Date:

Astronomy

Mar. 17, 2014 Rise Set
Actual Time 6:56 AM CDT 6:56 PM CDT
Civil Twilight 6:28 AM CDT 7:24 PM CDT
Nautical Twilight 5:56 AM CDT 7:56 PM CDT
Astronomical Twilight 5:23 AM CDT 8:29 PM CDT
Moon 8:14 PM CDT (3/17) 7:10 AM CDT (3/17)
Length of Visible Light 12h 55m
Length of Day
12h 00m
Full, 99% of the Moon is Illuminated
Mar 17
Full
Mar 23
Last Quarter
Mar 30
New
Apr 7
First Quarter
Apr 15
Full

Hourly Weather History & Observations

Time (CDT) Temp. Windchill Dew Point Humidity Pressure Visibility Wind Dir Wind Speed Gust Speed Precip Events Conditions
12:53 AM 16.0 °F 7.4 °F 8.1 °F 71% 30.17 in 10.0 mi NNE 5.8 mph - N/A   Clear
1:53 AM 15.1 °F 5.2 °F 8.1 °F 74% 30.13 in 10.0 mi NE 6.9 mph - N/A   Clear
2:53 AM 14.0 °F 2.0 °F 7.0 °F 74% 30.10 in 10.0 mi NE 9.2 mph - N/A   Clear
3:53 AM 12.9 °F 2.6 °F 6.1 °F 74% 30.09 in 10.0 mi NE 6.9 mph - N/A   Clear
4:53 AM 12.0 °F 0.5 °F 6.1 °F 77% 30.06 in 10.0 mi ENE 8.1 mph - N/A   Clear
5:53 AM 12.0 °F -1.3 °F 5.0 °F 73% 30.06 in 10.0 mi ENE 10.4 mph - N/A   Clear
6:53 AM 12.0 °F 0.5 °F 5.0 °F 73% 30.04 in 10.0 mi East 8.1 mph - N/A   Clear
7:53 AM 14.0 °F 0.5 °F 7.0 °F 74% 30.05 in 10.0 mi East 11.5 mph - N/A   Clear
8:53 AM 18.0 °F 5.4 °F 8.1 °F 65% 30.03 in 10.0 mi ESE 11.5 mph - N/A   Clear
9:53 AM 21.0 °F 7.6 °F 9.0 °F 60% 30.02 in 10.0 mi SE 15.0 mph 19.6 mph N/A   Clear
10:53 AM 26.1 °F 14.5 °F 10.9 °F 53% 30.00 in 10.0 mi ESE 13.8 mph - N/A   Clear
11:53 AM 26.1 °F 20.5 °F 10.9 °F 53% 29.99 in 10.0 mi Variable 4.6 mph - N/A   Clear
12:53 PM 28.9 °F 19.8 °F 12.9 °F 51% 29.96 in 10.0 mi SSE 10.4 mph - N/A   Clear
1:53 PM 32.0 °F 23.6 °F 16.0 °F 52% 29.91 in 10.0 mi SSE 10.4 mph - N/A   Clear
2:53 PM 34.0 °F 29.8 °F 19.0 °F 54% 29.90 in 10.0 mi Variable 4.6 mph - N/A   Clear
3:53 PM 35.1 °F 29.3 °F 19.9 °F 54% 29.87 in 10.0 mi Variable 6.9 mph - N/A   Clear
4:53 PM 36.0 °F 28.5 °F 21.0 °F 55% 29.87 in 10.0 mi SE 10.4 mph - N/A   Clear
5:53 PM 36.0 °F 29.6 °F 21.0 °F 55% 29.86 in 10.0 mi SSE 8.1 mph - N/A   Clear
6:53 PM 33.1 °F 26.9 °F 21.0 °F 61% 29.87 in 10.0 mi SSE 6.9 mph - N/A   Clear
7:53 PM 30.0 °F 23.2 °F 21.9 °F 72% 29.87 in 10.0 mi ESE 6.9 mph - N/A   Clear
8:53 PM 30.0 °F 25.2 °F 23.0 °F 75% 29.89 in 10.0 mi SE 4.6 mph - N/A   Clear
9:53 PM 30.0 °F 24.1 °F 24.1 °F 79% 29.89 in 10.0 mi SE 5.8 mph - N/A   Clear
10:53 PM 28.9 °F 22.8 °F 24.1 °F 82% 29.88 in 10.0 mi SE 5.8 mph - N/A   Clear
11:53 PM 28.9 °F 21.9 °F 24.1 °F 82% 29.89 in 10.0 mi SE 6.9 mph - N/A   Clear